GTYEY EDLN-EDDG

Flight info

Callsign GTYEY
Flight time 1h 17m
Altitude 7000
Route ABODU2N ABODU L179 MEVEL MEVEL1A
Aircraft C172/L-SFG/C

Departure

Time 2026-05-06 19:26
Airport Mönchengladbach Airport (EDLN)

Arrival

Time 2026-05-06 20:44
Airport Münster Osnabrück Airport (EDDG)
Time Latitude Longitude Altitude Speed Heading
2026-05-06 18:54 51.22872 6.50367 121 ft 0 kts 219°
2026-05-06 19:20 51.22863 6.50356 121 ft 4 kts 211°
2026-05-06 19:20 51.22844 6.50361 121 ft 0 kts 134°
2026-05-06 19:20 51.22841 6.50373 121 ft 0 kts 60°
2026-05-06 19:21 51.22878 6.50429 121 ft 11 kts 57°
2026-05-06 19:21 51.22928 6.50397 121 ft 10 kts 308°
2026-05-06 19:21 51.22992 6.50271 121 ft 17 kts 310°
2026-05-06 19:21 51.23059 6.50145 121 ft 12 kts 330°
2026-05-06 19:22 51.23095 6.50158 121 ft 0 kts 39°
2026-05-06 19:22 51.23095 6.50159 122 ft 0 kts 39°
2026-05-06 19:24 51.23101 6.50166 122 ft 6 kts 39°
2026-05-06 19:24 51.23124 6.50269 121 ft 13 kts 120°
2026-05-06 19:25 51.23111 6.50296 121 ft 8 kts 130°
2026-05-06 19:25 51.22995 6.50529 122 ft 48 kts 128°
2026-05-06 19:25 51.22722 6.51013 229 ft 56 kts 131°
2026-05-06 19:25 51.22428 6.51520 306 ft 67 kts 125°
2026-05-06 19:26 51.22155 6.52078 457 ft 66 kts 117°
2026-05-06 19:26 51.21878 6.52682 607 ft 65 kts 113°
2026-05-06 19:26 51.21605 6.53333 698 ft 77 kts 112°
2026-05-06 19:26 51.21248 6.54051 806 ft 87 kts 122°
2026-05-06 19:27 51.20853 6.54854 917 ft 94 kts 117°
2026-05-06 19:27 51.20363 6.55574 1038 ft 101 kts 141°
2026-05-06 19:27 51.19751 6.56141 1161 ft 99 kts 144°
2026-05-06 19:27 51.19259 6.56846 1305 ft 91 kts 117°
2026-05-06 19:28 51.18891 6.57686 1381 ft 95 kts 126°
2026-05-06 19:28 51.18289 6.58040 1524 ft 98 kts 176°
2026-05-06 19:28 51.17674 6.57623 1583 ft 103 kts 224°
2026-05-06 19:28 51.17180 6.56677 1495 ft 114 kts 237°
2026-05-06 19:29 51.16784 6.55548 1368 ft 120 kts 246°
2026-05-06 19:29 51.16386 6.54378 1304 ft 120 kts 244°
2026-05-06 19:29 51.15870 6.53327 1313 ft 120 kts 234°
2026-05-06 19:29 51.15344 6.52308 1355 ft 118 kts 233°
2026-05-06 19:30 51.14813 6.51317 1424 ft 115 kts 231°
2026-05-06 19:30 51.14292 6.50427 1521 ft 108 kts 231°
2026-05-06 19:30 51.13784 6.49568 1607 ft 106 kts 231°
2026-05-06 19:30 51.13272 6.48731 1707 ft 105 kts 227°
2026-05-06 19:31 51.12765 6.47889 1810 ft 105 kts 231°
2026-05-06 19:31 51.12283 6.47000 1917 ft 107 kts 234°
2026-05-06 19:31 51.12009 6.44910 2116 ft 95 kts 301°
2026-05-06 19:32 51.12395 6.44065 2116 ft 99 kts 304°
2026-05-06 19:32 51.12797 6.43295 2203 ft 86 kts 309°
2026-05-06 19:32 51.13164 6.42612 2282 ft 80 kts 307°
2026-05-06 19:32 51.13263 6.41685 2334 ft 91 kts 282°
2026-05-06 19:33 51.13456 6.40798 2456 ft 84 kts 291°
2026-05-06 19:33 51.13692 6.40003 2571 ft 77 kts 313°
2026-05-06 19:33 51.14039 6.39389 2686 ft 72 kts 329°
2026-05-06 19:33 51.14439 6.38940 2810 ft 69 kts 333°
2026-05-06 19:34 51.14829 6.38524 2932 ft 66 kts 333°
2026-05-06 19:34 51.15211 6.38138 3055 ft 62 kts 336°
2026-05-06 19:34 51.15605 6.37790 3061 ft 68 kts 339°
2026-05-06 19:34 51.16039 6.37427 3012 ft 74 kts 339°
2026-05-06 19:35 51.16497 6.37037 3025 ft 74 kts 339°
2026-05-06 19:35 51.16954 6.36643 3028 ft 74 kts 339°
2026-05-06 19:35 51.17414 6.36243 3029 ft 75 kts 338°
2026-05-06 19:35 51.17880 6.35837 3032 ft 77 kts 338°
2026-05-06 19:36 51.18355 6.35423 3031 ft 79 kts 338°
2026-05-06 19:36 51.18848 6.34993 3031 ft 81 kts 337°
2026-05-06 19:36 51.19361 6.34544 3031 ft 85 kts 337°
2026-05-06 19:36 51.19892 6.34079 3032 ft 88 kts 337°
2026-05-06 19:37 51.20433 6.33605 3030 ft 90 kts 337°
2026-05-06 19:37 51.20989 6.33117 3031 ft 91 kts 338°
2026-05-06 19:37 51.21549 6.32631 3031 ft 91 kts 340°
2026-05-06 19:37 51.22149 6.32569 3028 ft 86 kts 11°
2026-05-06 19:38 51.22734 6.32776 3030 ft 86 kts 15°
2026-05-06 19:38 51.23318 6.33023 3031 ft 86 kts 16°
2026-05-06 19:38 51.23886 6.33276 3030 ft 85 kts 16°
2026-05-06 19:38 51.24465 6.33540 3029 ft 86 kts 16°
2026-05-06 19:39 51.25039 6.33805 3029 ft 86 kts 16°
2026-05-06 19:39 51.25612 6.34072 3031 ft 86 kts 17°
2026-05-06 19:39 51.26191 6.34342 3026 ft 86 kts 17°
2026-05-06 19:39 51.26758 6.34609 3029 ft 85 kts 17°
2026-05-06 19:40 51.27322 6.34875 3040 ft 84 kts 18°
2026-05-06 19:40 51.27854 6.35123 3170 ft 76 kts 17°
2026-05-06 19:40 51.28339 6.35345 3327 ft 68 kts 16°
2026-05-06 19:40 51.28779 6.35542 3493 ft 62 kts 15°
2026-05-06 19:41 51.29190 6.35722 3639 ft 61 kts 14°
2026-05-06 19:41 51.29606 6.35904 3790 ft 61 kts 14°
2026-05-06 19:41 51.30017 6.36088 3940 ft 61 kts 15°
2026-05-06 19:41 51.30430 6.36276 4090 ft 61 kts 15°
2026-05-06 19:42 51.30837 6.36463 4241 ft 61 kts 15°
2026-05-06 19:42 51.31243 6.36651 4391 ft 60 kts 15°
2026-05-06 19:42 51.31644 6.36838 4542 ft 60 kts 15°
2026-05-06 19:42 51.32040 6.37022 4692 ft 58 kts 14°
2026-05-06 19:43 51.32425 6.37200 4839 ft 57 kts 14°
2026-05-06 19:43 51.32803 6.37374 4982 ft 55 kts 13°
2026-05-06 19:43 51.33166 6.37540 5124 ft 53 kts 13°
2026-05-06 19:43 51.33511 6.37696 5247 ft 50 kts 13°
2026-05-06 19:44 51.33898 6.37928 5205 ft 67 kts 14°
2026-05-06 19:44 51.34362 6.38126 5280 ft 69 kts 15°
2026-05-06 19:44 51.34835 6.38361 5365 ft 73 kts 15°
2026-05-06 19:44 51.35332 6.38606 5446 ft 78 kts 15°
2026-05-06 19:45 51.35866 6.38870 5530 ft 81 kts 15°
2026-05-06 19:45 51.36418 6.39143 5611 ft 84 kts 15°
2026-05-06 19:45 51.36980 6.39418 5706 ft 84 kts 15°
2026-05-06 19:45 51.37535 6.39686 5829 ft 82 kts 15°
2026-05-06 19:46 51.38084 6.39949 5956 ft 80 kts 15°
2026-05-06 19:46 51.38614 6.40202 6079 ft 78 kts 15°
2026-05-06 19:46 51.39130 6.40446 6199 ft 77 kts 14°
2026-05-06 19:46 51.39635 6.40684 6324 ft 75 kts 14°
2026-05-06 19:47 51.40134 6.40919 6447 ft 74 kts 14°
2026-05-06 19:47 51.40624 6.41149 6567 ft 72 kts 14°
2026-05-06 19:47 51.41098 6.41372 6687 ft 70 kts 14°
2026-05-06 19:47 51.41552 6.41585 6805 ft 67 kts 14°
2026-05-06 19:48 51.42000 6.41793 6888 ft 70 kts 14°
2026-05-06 19:48 51.42509 6.42034 6893 ft 81 kts 16°
2026-05-06 19:48 51.43073 6.42312 6890 ft 89 kts 16°
2026-05-06 19:48 51.43692 6.42620 6885 ft 94 kts 17°
2026-05-06 19:49 51.44325 6.42932 6892 ft 96 kts 17°
2026-05-06 19:49 51.44966 6.43245 6904 ft 97 kts 17°
2026-05-06 19:49 51.45621 6.43563 6904 ft 98 kts 16°
2026-05-06 19:49 51.46275 6.43878 6904 ft 99 kts 16°
2026-05-06 19:50 51.46942 6.44199 6905 ft 99 kts 17°
2026-05-06 19:50 51.47605 6.44517 6909 ft 99 kts 16°
2026-05-06 19:50 51.48268 6.44836 6907 ft 100 kts 16°
2026-05-06 19:50 51.48937 6.45156 6907 ft 100 kts 16°
2026-05-06 19:51 51.49608 6.45478 6908 ft 100 kts 16°
2026-05-06 19:51 51.50274 6.45797 6910 ft 100 kts 16°
2026-05-06 19:51 51.50936 6.46165 6900 ft 101 kts 30°
2026-05-06 19:51 51.51438 6.46953 6905 ft 101 kts 45°
2026-05-06 19:52 51.51881 6.47837 6904 ft 102 kts 47°
2026-05-06 19:52 51.52320 6.48748 6901 ft 103 kts 48°
2026-05-06 19:52 51.52752 6.49659 6901 ft 103 kts 48°
2026-05-06 19:52 51.53187 6.50584 6905 ft 102 kts 48°
2026-05-06 19:53 51.53613 6.51491 6906 ft 103 kts 48°
2026-05-06 19:53 51.54045 6.52415 6909 ft 103 kts 49°
2026-05-06 19:53 51.54477 6.53339 6905 ft 103 kts 49°
2026-05-06 19:53 51.54910 6.54267 6904 ft 103 kts 48°
2026-05-06 19:54 51.55339 6.55187 6904 ft 103 kts 48°
2026-05-06 19:54 51.55768 6.56108 6902 ft 102 kts 48°
2026-05-06 19:54 51.56195 6.57024 6905 ft 102 kts 48°
2026-05-06 19:54 51.56620 6.57936 6905 ft 103 kts 48°
2026-05-06 19:55 51.57050 6.58859 6903 ft 103 kts 48°
2026-05-06 19:55 51.57479 6.59778 6904 ft 102 kts 49°
2026-05-06 19:55 51.57908 6.60701 6904 ft 102 kts 49°
2026-05-06 19:55 51.58336 6.61623 6905 ft 103 kts 48°
2026-05-06 19:56 51.58762 6.62538 6907 ft 103 kts 49°
2026-05-06 19:56 51.59193 6.63466 6907 ft 103 kts 49°
2026-05-06 19:56 51.59621 6.64388 6906 ft 103 kts 49°
2026-05-06 19:56 51.60049 6.65311 6908 ft 103 kts 49°
2026-05-06 19:57 51.60476 6.66230 6906 ft 103 kts 49°
2026-05-06 19:57 51.60904 6.67155 6906 ft 102 kts 49°
2026-05-06 19:57 51.61332 6.68074 6906 ft 102 kts 49°
2026-05-06 19:57 51.61755 6.68989 6905 ft 102 kts 49°
2026-05-06 19:58 51.62179 6.69901 6902 ft 102 kts 49°
2026-05-06 19:58 51.62606 6.70822 6896 ft 102 kts 49°
2026-05-06 19:58 51.63029 6.71735 6900 ft 101 kts 49°
2026-05-06 19:58 51.63452 6.72649 6901 ft 101 kts 49°
2026-05-06 19:59 51.63870 6.73552 6902 ft 100 kts 49°
2026-05-06 19:59 51.64289 6.74458 6901 ft 100 kts 50°
2026-05-06 19:59 51.64701 6.75349 6903 ft 100 kts 50°
2026-05-06 19:59 51.65113 6.76241 6905 ft 99 kts 50°
2026-05-06 20:00 51.65530 6.77142 6910 ft 100 kts 49°
2026-05-06 20:00 51.65945 6.78041 6903 ft 100 kts 49°
2026-05-06 20:00 51.66359 6.78937 6891 ft 98 kts 49°
2026-05-06 20:00 51.66765 6.79814 6897 ft 97 kts 49°
2026-05-06 20:01 51.67173 6.80687 6898 ft 96 kts 50°
2026-05-06 20:01 51.67575 6.81544 6898 ft 96 kts 49°
2026-05-06 20:01 51.67973 6.82389 6900 ft 95 kts 49°
2026-05-06 20:01 51.68374 6.83236 6900 ft 94 kts 48°
2026-05-06 20:02 51.68769 6.84076 6881 ft 92 kts 49°
2026-05-06 20:02 51.69158 6.84891 6891 ft 91 kts 47°
2026-05-06 20:02 51.69544 6.85708 6908 ft 90 kts 51°
2026-05-06 20:02 51.69922 6.86516 6897 ft 91 kts 49°
2026-05-06 20:03 51.70304 6.87334 6894 ft 91 kts 49°
2026-05-06 20:03 51.70677 6.88142 6895 ft 88 kts 49°
2026-05-06 20:03 51.71043 6.88926 6892 ft 87 kts 47°
2026-05-06 20:03 51.71407 6.89706 6901 ft 86 kts 48°
2026-05-06 20:04 51.71768 6.90481 6911 ft 86 kts 47°
2026-05-06 20:04 51.72131 6.91261 6900 ft 87 kts 48°
2026-05-06 20:04 51.72496 6.92051 6902 ft 87 kts 49°
2026-05-06 20:04 51.72857 6.92834 6896 ft 85 kts 49°
2026-05-06 20:05 51.73201 6.93587 6882 ft 82 kts 50°
2026-05-06 20:05 51.73534 6.94308 6880 ft 76 kts 49°
2026-05-06 20:05 51.73842 6.94977 6885 ft 73 kts 48°
2026-05-06 20:05 51.74147 6.95627 6895 ft 73 kts 48°
2026-05-06 20:06 51.74452 6.96278 6875 ft 71 kts 47°
2026-05-06 20:06 51.74742 6.96897 6891 ft 67 kts 46°
2026-05-06 20:06 51.75022 6.97503 6890 ft 66 kts 46°
2026-05-06 20:06 51.75305 6.98094 6884 ft 66 kts 46°
2026-05-06 20:07 51.75579 6.98678 6878 ft 63 kts 45°
2026-05-06 20:07 51.75839 6.99229 6878 ft 59 kts 46°
2026-05-06 20:07 51.76082 6.99735 6868 ft 54 kts 42°
2026-05-06 20:07 51.76376 7.00181 6746 ft 65 kts 26°
2026-05-06 20:08 51.76911 7.00752 6044 ft 118 kts 50°
2026-05-06 20:08 51.77286 7.01667 6284 ft 69 kts 44°
2026-05-06 20:08 51.77470 7.02200 6171 ft 84 kts 52°
2026-05-06 20:08 51.77902 7.02964 5760 ft 94 kts 32°
2026-05-06 20:09 51.78444 7.03554 5457 ft 102 kts 33°
2026-05-06 20:09 51.79076 7.04154 4665 ft 134 kts
2026-05-06 20:09 51.79874 7.03969 4373 ft 109 kts 328°
2026-05-06 20:09 51.80473 7.03317 4306 ft 102 kts 338°
2026-05-06 20:10 51.81044 7.03192 4539 ft 57 kts 31°
2026-05-06 20:10 51.81289 7.03731 4508 ft 81 kts 59°
2026-05-06 20:10 51.81438 7.04689 4452 ft 87 kts 69°
2026-05-06 20:10 51.81554 7.05679 4373 ft 90 kts 71°
2026-05-06 20:11 51.81660 7.06666 4273 ft 88 kts 73°
2026-05-06 20:11 51.81766 7.07646 4187 ft 88 kts 71°
2026-05-06 20:11 51.81868 7.08600 4121 ft 86 kts 72°
2026-05-06 20:11 51.81958 7.09477 4204 ft 72 kts 70°
2026-05-06 20:12 51.82045 7.10236 4324 ft 64 kts 67°
2026-05-06 20:12 51.82126 7.10919 4446 ft 58 kts 65°
2026-05-06 20:12 51.82205 7.11518 4541 ft 52 kts 64°
2026-05-06 20:12 51.82379 7.11972 4616 ft 46 kts 32°
2026-05-06 20:13 51.82538 7.12466 4661 ft 54 kts 63°
2026-05-06 20:13 51.82659 7.13141 4646 ft 69 kts 62°
2026-05-06 20:13 51.82825 7.13877 4729 ft 72 kts 59°
2026-05-06 20:13 51.83040 7.14638 4783 ft 76 kts 57°
2026-05-06 20:14 51.83298 7.15414 4799 ft 80 kts 51°
2026-05-06 20:14 51.83594 7.16190 4813 ft 83 kts 54°
2026-05-06 20:14 51.83905 7.16983 4842 ft 82 kts 50°
2026-05-06 20:14 51.84231 7.17756 4917 ft 85 kts 53°
2026-05-06 20:15 51.84573 7.18558 4856 ft 88 kts 53°
2026-05-06 20:15 51.84914 7.19353 4878 ft 86 kts 47°
2026-05-06 20:15 51.85306 7.20081 4871 ft 84 kts 31°
2026-05-06 20:15 51.85890 7.20136 4909 ft 91 kts 347°
2026-05-06 20:16 51.86492 7.19733 4879 ft 96 kts 344°
2026-05-06 20:16 51.87086 7.19257 4909 ft 93 kts 340°
2026-05-06 20:16 51.87635 7.18784 4949 ft 88 kts 343°
2026-05-06 20:16 51.88170 7.18314 5005 ft 85 kts 339°
2026-05-06 20:17 51.88701 7.17856 4984 ft 89 kts 340°
2026-05-06 20:17 51.89254 7.17377 4993 ft 89 kts 341°
2026-05-06 20:17 51.89823 7.17306 4975 ft 81 kts 27°
2026-05-06 20:17 51.90286 7.17768 5004 ft 77 kts 31°
2026-05-06 20:18 51.90751 7.18206 4983 ft 76 kts 28°
2026-05-06 20:18 51.91213 7.18625 4995 ft 75 kts 29°
2026-05-06 20:18 51.91676 7.19048 4978 ft 76 kts 33°
2026-05-06 20:18 51.92171 7.19242 4997 ft 77 kts 353°
2026-05-06 20:19 51.92646 7.18758 4996 ft 85 kts 330°
2026-05-06 20:19 51.93077 7.18070 5002 ft 87 kts 327°
2026-05-06 20:19 51.93490 7.17333 4998 ft 88 kts 321°
2026-05-06 20:19 51.93890 7.16578 5001 ft 88 kts 323°
2026-05-06 20:20 51.94283 7.15818 5002 ft 88 kts 319°
2026-05-06 20:20 51.94671 7.15041 4993 ft 88 kts 320°
2026-05-06 20:20 51.95054 7.14267 4994 ft 88 kts 321°
2026-05-06 20:20 51.95438 7.13483 4992 ft 86 kts 320°
2026-05-06 20:21 51.95803 7.12738 4996 ft 83 kts 321°
2026-05-06 20:21 51.96163 7.11998 4989 ft 82 kts 320°
2026-05-06 20:21 51.96560 7.11402 4974 ft 71 kts 350°
2026-05-06 20:21 51.96987 7.11412 4994 ft 59 kts 22°
2026-05-06 20:22 51.97362 7.11651 4981 ft 57 kts 25°
2026-05-06 20:22 51.97752 7.11956 5014 ft 69 kts 29°
2026-05-06 20:22 51.98195 7.12353 4993 ft 74 kts 28°
2026-05-06 20:22 51.98640 7.12806 4992 ft 75 kts 34°
2026-05-06 20:23 51.99078 7.13296 4995 ft 77 kts 36°
2026-05-06 20:23 51.99523 7.13796 5013 ft 78 kts 34°
2026-05-06 20:23 51.99961 7.14317 5006 ft 78 kts 37°
2026-05-06 20:23 52.00400 7.14846 5004 ft 75 kts 37°
2026-05-06 20:24 52.00814 7.15346 4992 ft 74 kts 34°
2026-05-06 20:24 52.01229 7.15850 4985 ft 74 kts 36°
2026-05-06 20:24 52.01629 7.16338 5016 ft 64 kts 34°
2026-05-06 20:24 52.01977 7.16758 5003 ft 63 kts 37°
2026-05-06 20:25 52.02314 7.17173 4975 ft 60 kts 36°
2026-05-06 20:25 52.02611 7.17631 5003 ft 60 kts 51°
2026-05-06 20:25 52.02806 7.18298 4859 ft 71 kts 57°
2026-05-06 20:25 52.02999 7.19054 4692 ft 72 kts 62°
2026-05-06 20:26 52.03169 7.19805 4567 ft 70 kts 65°
2026-05-06 20:26 52.03336 7.20551 4382 ft 70 kts 63°
2026-05-06 20:26 52.03504 7.21297 4240 ft 69 kts 62°
2026-05-06 20:26 52.03664 7.22007 4110 ft 65 kts 62°
2026-05-06 20:27 52.03810 7.22698 4023 ft 63 kts 60°
2026-05-06 20:27 52.03957 7.23344 3986 ft 59 kts 59°
2026-05-06 20:27 52.04104 7.23978 3976 ft 59 kts 59°
2026-05-06 20:27 52.04248 7.24606 3997 ft 61 kts 60°
2026-05-06 20:28 52.04410 7.25295 4002 ft 69 kts 60°
2026-05-06 20:28 52.04578 7.26055 4012 ft 73 kts 60°
2026-05-06 20:28 52.04749 7.26836 4012 ft 73 kts 63°
2026-05-06 20:28 52.04917 7.27632 3988 ft 73 kts 60°
2026-05-06 20:29 52.05083 7.28393 4009 ft 71 kts 59°
2026-05-06 20:29 52.05246 7.29152 3964 ft 68 kts 63°
2026-05-06 20:29 52.05393 7.29847 3952 ft 62 kts 58°
2026-05-06 20:29 52.05529 7.30476 3986 ft 57 kts 60°
2026-05-06 20:30 52.05661 7.31068 3941 ft 57 kts 59°
2026-05-06 20:30 52.05949 7.32355 3770 ft 63 kts 62°
2026-05-06 20:30 52.06097 7.33042 3654 ft 64 kts 62°
2026-05-06 20:31 52.06260 7.33725 3517 ft 65 kts 61°
2026-05-06 20:31 52.06432 7.34395 3398 ft 64 kts 59°
2026-05-06 20:31 52.06612 7.35058 3270 ft 63 kts 58°
2026-05-06 20:31 52.06789 7.35675 3183 ft 59 kts 56°
2026-05-06 20:32 52.06969 7.36260 3092 ft 56 kts 54°
2026-05-06 20:32 52.07150 7.36810 3011 ft 55 kts 52°
2026-05-06 20:32 52.07338 7.37337 2923 ft 53 kts 51°
2026-05-06 20:32 52.07534 7.37838 2844 ft 51 kts 47°
2026-05-06 20:33 52.07723 7.38286 2821 ft 41 kts 41°
2026-05-06 20:33 52.07762 7.38761 2823 ft 42 kts 71°
2026-05-06 20:33 52.07830 7.39330 2559 ft 68 kts 67°
2026-05-06 20:33 52.07900 7.39938 2709 ft 44 kts 59°
2026-05-06 20:34 52.07974 7.40406 2769 ft 43 kts 58°
2026-05-06 20:34 52.08057 7.40916 2798 ft 50 kts 60°
2026-05-06 20:34 52.08145 7.41518 2803 ft 57 kts 65°
2026-05-06 20:34 52.08227 7.42177 2795 ft 61 kts 65°
2026-05-06 20:35 52.08312 7.42865 2789 ft 62 kts 65°
2026-05-06 20:35 52.08406 7.43550 2784 ft 62 kts 65°
2026-05-06 20:35 52.08507 7.44229 2787 ft 61 kts 64°
2026-05-06 20:35 52.08620 7.44904 2789 ft 62 kts 62°
2026-05-06 20:36 52.08835 7.45475 2786 ft 60 kts 56°
2026-05-06 20:36 52.08920 7.46141 2783 ft 58 kts 67°
2026-05-06 20:36 52.09001 7.46768 2746 ft 58 kts 61°
2026-05-06 20:36 52.09022 7.47566 2459 ft 84 kts 80°
2026-05-06 20:37 52.09039 7.48450 2314 ft 72 kts 70°
2026-05-06 20:37 52.09096 7.49154 2286 ft 48 kts 52°
2026-05-06 20:37 52.09214 7.49624 2241 ft 46 kts 47°
2026-05-06 20:37 52.09368 7.50111 2177 ft 48 kts 37°
2026-05-06 20:38 52.09542 7.50580 2152 ft 49 kts 46°
2026-05-06 20:38 52.09647 7.51162 2036 ft 57 kts 49°
2026-05-06 20:38 52.09754 7.51798 1940 ft 59 kts 53°
2026-05-06 20:38 52.09818 7.52442 1864 ft 57 kts 51°
2026-05-06 20:39 52.09994 7.53012 1778 ft 55 kts 37°
2026-05-06 20:39 52.10215 7.53501 1735 ft 53 kts 36°
2026-05-06 20:39 52.10355 7.54073 1673 ft 57 kts 45°
2026-05-06 20:39 52.10475 7.54694 1625 ft 58 kts 50°
2026-05-06 20:40 52.10609 7.55349 1534 ft 63 kts 47°
2026-05-06 20:40 52.10743 7.56017 1522 ft 58 kts 51°
2026-05-06 20:40 52.10883 7.56641 1481 ft 60 kts 55°
2026-05-06 20:40 52.11012 7.57327 1396 ft 65 kts 59°
2026-05-06 20:41 52.11147 7.57969 1393 ft 60 kts 55°
2026-05-06 20:41 52.11307 7.58615 1324 ft 61 kts 53°
2026-05-06 20:41 52.11510 7.59247 1247 ft 66 kts 60°
2026-05-06 20:41 52.11652 7.59988 1133 ft 73 kts 69°
2026-05-06 20:42 52.11779 7.60790 1029 ft 72 kts 59°
2026-05-06 20:42 52.11996 7.61486 982 ft 68 kts 64°
2026-05-06 20:42 52.12157 7.62240 822 ft 74 kts 66°
2026-05-06 20:42 52.12283 7.63054 710 ft 73 kts 61°
2026-05-06 20:43 52.12474 7.63820 587 ft 73 kts 63°
2026-05-06 20:43 52.12641 7.64578 510 ft 70 kts 63°
2026-05-06 20:43 52.12814 7.65322 423 ft 70 kts 67°
2026-05-06 20:43 52.12964 7.66066 342 ft 69 kts 66°
2026-05-06 20:44 52.13117 7.66821 230 ft 70 kts 58°
2026-05-06 20:44 52.13262 7.67544 174 ft 62 kts 63°
2026-05-06 20:44 52.13388 7.68123 160 ft 46 kts 73°
2026-05-06 20:44 52.13484 7.68586 160 ft 42 kts 71°
2026-05-06 20:45 52.13580 7.69042 160 ft 42 kts 71°
2026-05-06 20:45 52.13674 7.69487 160 ft 42 kts 70°
2026-05-06 20:45 52.13762 7.69892 160 ft 26 kts 70°
2026-05-06 20:45 52.13685 7.70032 159 ft 16 kts 179°
2026-05-06 20:46 52.13648 7.70027 159 ft 0 kts 198°
2026-05-06 20:46 52.13625 7.70005 159 ft 10 kts 220°
2026-05-06 20:46 52.13576 7.69846 160 ft 20 kts 249°
2026-05-06 20:46 52.13521 7.69582 160 ft 28 kts 252°
2026-05-06 20:47 52.13449 7.69236 161 ft 34 kts 250°
2026-05-06 20:47 52.13374 7.68886 160 ft 31 kts 252°
2026-05-06 20:47 52.13307 7.68571 160 ft 27 kts 252°
2026-05-06 20:47 52.13233 7.68339 161 ft 19 kts 182°
2026-05-06 20:48 52.13184 7.68290 160 ft 6 kts 241°
2026-05-06 20:48 52.13160 7.68271 160 ft 0 kts 229°
2026-05-06 20:48 52.13157 7.68241 160 ft 4 kts 270°
2026-05-06 20:48 52.13157 7.68237 160 ft 0 kts 270°